User: anonymous   Login
Location: Unspecified
(0.0000°N, 0.0000°E)
Time: 09:22:35
(UTC+00:00)
Language:

GOSAT - Orbit

View from above orbital plane
View from above orbital plane
View from above satellite
View from above satellite

Ground track
Ground track

The orbit data is extracted from the following two-line orbital elements,

1 33492U 09002A   14295.83828272  .00000035  00000-0  14543-4 0   386
2 33492 098.0587 043.3247 0001728 083.1266 277.0136 14.67552978307805
Epoch (UTC): 22 October 2014 20:07:07
Eccentricity: 0.0001728
inclination: 98.0587°
perigee height: 667 km
apogee height: 670 km
right ascension of ascending node: 43.3247°
argument of perigee: 83.1266°
revolutions per day: 14.67552978
mean anomaly at epoch: 277.0136°
orbit number at epoch: 30780

The dashed part of the orbit path shows where the satellite is in the earth's shadow,  

DLR